This is the latest recevied weather packets stored in our database for station/object N3DXC. If no packets are shown the sender has not sent any weather packets the latest 10 day(s).
| Time | Temp. | Humidity | Pressure | Rain* | Wind** | Luminosity | Snow |
|---|---|---|---|---|---|---|---|
| 1777526406 | 7.78° C | 97% | 1009.8 hPa | 0 mm | - | - | - |
| 1777526106 | 7.78° C | 97% | 1009.8 hPa | 0 mm | - | - | - |
| 1777525806 | 7.78° C | 97% | 1009.6 hPa | 0 mm | - | - | - |
| 1777525506 | 7.78° C | 97% | 1009.8 hPa | 0 mm | - | - | - |
| 1777525212 | 8.33° C | 97% | 1009.8 hPa | 0 mm | - | - | - |
| 1777524907 | 8.33° C | 97% | 1009.9 hPa | 0 mm | - | - | - |
| 1777524606 | 7.78° C | 97% | 1009.9 hPa | 0 mm | - | - | - |
| 1777524306 | 8.33° C | 97% | 1010 hPa | 0 mm | - | - | - |
| 1777524006 | 8.33° C | 97% | 1009.9 hPa | 0 mm | - | - | - |
| 1777523709 | 8.33° C | 97% | 1009.6 hPa | 0 mm | - | - | - |
| 1777523407 | 8.33° C | 97% | 1009.6 hPa | 0 mm | - | - | - |
| 1777523107 | 8.33° C | 97% | 1009.6 hPa | 0 mm | - | - | - |
| 1777522807 | 8.33° C | 97% | 1009.8 hPa | 0 mm | - | - | - |
| 1777522507 | 8.89° C | 96% | 1009.6 hPa | 0 mm | - | - | - |
| 1777522207 | 8.33° C | 96% | 1009.6 hPa | 0 mm | - | - | - |
| 1777521906 | 8.89° C | 96% | 1009.6 hPa | 0 mm | - | - | - |
| 1777521606 | 8.89° C | 96% | 1009.6 hPa | 0 mm | - | - | - |
| 1777521309 | 8.89° C | 96% | 1009.6 hPa | 0 mm | - | - | - |
| 1777521006 | 9.44° C | 95% | 1009.5 hPa | 0 mm | - | - | - |
| 1777520706 | 10° C | 95% | 1009.4 hPa | 0 mm | - | - | - |
| 1777520407 | 10° C | 95% | 1009.3 hPa | 0 mm | - | - | - |
| 1777520108 | 10.56° C | 95% | 1009.2 hPa | 0 mm | - | - | - |
| 1777519806 | 10.56° C | 95% | 1009.1 hPa | 0 mm | - | - | - |
| 1777519508 | 10.56° C | 95% | 1009.1 hPa | 0 mm | - | - | - |
| 1777519207 | 10° C | 95% | 1009.1 hPa | 0 mm | - | - | - |
* Rain latest hour (hover to see other rain measurements)
** Current wind speed in m/s (hover to see current wind gust speed)